Weather Roundup
Issued by NWS Chicago, IL

Home | Current Version | Previous Version | Graphics & Text | Print | Product List | Glossary On
Versions: 1 2 3 4 5 6 7 8 9 10 11 12 13 14 15 16 17 18 19 20 21 22 23 24 25 26 27 28 29 30 31 32 33 34 35 36 37 38 39 40 41 42 43 44 45 46 47 48 49 50
000
NZUS59 KLOT 311703
HRRLOT

CHICAGO AREA WEATHER ROUNDUP
NATIONAL WEATHER SERVICE CHICAGO/ROMEOVILLE IL
1200 PM CDT TUE MAY 31 2016

NOTE: "FAIR" INDICATES FEW OR NO CLOUDS BELOW 12,000 FEET WITH NO
SIGNIFICANT WEATHER AND/OR OBSTRUCTIONS TO VISIBILITY.

* THESE STATIONS ARE NOT UNDER NWS QUALITY CONTROL. THEY ALSO MAY NOT
  REPORT WEATHER SUCH AS PRECIPITATION OR FOG.

ILZ005-006-012>014-019>023-311800-
NORTHEAST ILLINOIS

CITY           SKY/WX    TMP DP  RH WIND       PRES   REMARKS
OHARE          PTSUNNY   81  58  45 E10       29.97F HX  81
MIDWAY         PTSUNNY   82  58  43 E12       29.98S HX  82
AURORA         CLOUDY    81  60  48 S8        29.98R HX  82
LANSING*       CLOUDY    82  57  42 SE9       29.99R HX  82
WAUKEGAN       SUNNY     71  56  58 E8        30.01S
DUPAGE AIRPORT MOSUNNY   81  58  45 SE10      29.97S HX  81
WHEELING       SUNNY     79  55  43 E12       29.99F
$$

WIZ051-052-058>065-066-070>072-311800-
SOUTHEAST WISCONSIN

CITY           SKY/WX    TMP DP  RH WIND       PRES   REMARKS
MILWAUKEE      PTSUNNY   67  55  65 E8        30.02F
KENOSHA*       MOSUNNY   72  55  55 E10       30.02R
RACINE*        SUNNY     72  52  49 E7        30.04S
WAUKESHA       MOSUNNY   72  52  49 E9        30.02F
$$

INZ001>003-010>013-019-020-311800-
NORTHWEST INDIANA

CITY           SKY/WX    TMP DP  RH WIND       PRES   REMARKS
GARY*          PTSUNNY   79  66  65 E13       30.00R HX  81
MICHIGAN CITY* NOT AVBL
RENSSELAER*    NOT AVBL
VALPARAISO     PTSUNNY   84  57  39 E9        30.00S HX  83
$$

LMZ740>746-311800-
SOUTHERN LAKE MICHIGAN

STATION/POSITION TIME  SKY/WX   TEMP WIND        PRES    VSBY
                                AIR  DIR/SP/G
                 (UTC)          (F)  (DEG/KT/KT) (MB)    (MI)
HARRISON CRIB    1600            65   90/  9/ 11   N/A
BURNHAM HARBOR   1700            69   CALM  /  7   N/A
CALUMET HARBOR   1600            67   40/  6/  9 1015.2F
BURNS HARBOR     1600            67   40/  8/ 15 1016.3S
MICHIGAN CITY    1600            72   10/  9/ 10   N/A
$$

ABBREVIATIONS USED IN REMARKS
   TC - TEMPERATURE IN CELSIUS
  WCI - WIND CHILL INDEX
   HX - HEAT INDEX
  VSB - VISIBILITY
$$



USA.gov is the U.S. government's official web portal to all federal, state and local government web resources and services.